Newark, NJ

7:17 AM EDT on September 16, 2019 (GMT -0400)
Newark International

Weather History for KEWR - August, 2019

Change the Weather History Date:

Wednesday, August 21, 2019

  Actual Average Record
Temperature  
Mean Temperature 82 °F 75 °F  
Max Temperature 89 °F 84 °F 97 °F (1955)
Min Temperature 74 °F 67 °F 53 °F (1949)
Degree Days  
Heating Degree Days 0 0  
Month to date heating degree days 0 0  
Since 1 June heating degree days 4 17  
Since 1 July heating degree days 0 0  
Cooling Degree Days 16 10  
Month to date cooling degree days 282 241  
Year to date cooling degree days 1101 939  
Since 1 June cooling degree days 1016 863  
Growing Degree Days 32 (Base 50)    
Moisture  
Dew Point 72 °F    
Average Humidity 75    
Maximum Humidity 94    
Minimum Humidity 53    
Precipitation  
Precipitation 0.26 in 0.11 in 1.93 in (1933)
Month to date precipitation 4.53 2.70  
Year to date precipitation 40.31 30.37  
Snow  
Snow 0.00 in 0.00 in 0.00 in (2002)
Month to date snowfall 0.0 0.0  
Since 1 July snowfall 0.0 0.0  
Snow Depth 0.00 in    
Sea Level Pressure  
Sea Level Pressure 29.92 in    
Wind  
Wind Speed 7 mph ()    
Max Wind Speed 38 mph    
Max Gust Speed 45 mph    
Visibility 8.8 miles    
Events Rain , Thunderstorm    
T = Trace of Precipitation, MM = Missing Value Source: Averaged Metar Reports

Daily Weather History Graph

Daily Weather History Graph

Search for Another Location

Airport or City:

Astronomy

Aug. 21, 2019 Rise Set
Actual Time 6:12 AM EDT 7:46 PM EDT
Civil Twilight 5:43 AM EDT 8:15 PM EDT
Nautical Twilight 5:08 AM EDT 8:49 PM EDT
Astronomical Twilight 4:31 AM EDT 9:26 PM EDT
Moon 11:00 PM EDT (8/21) 11:47 AM EDT (8/21)
Length of Visible Light 14h 31m
Length of Day
13h 33m
Waning Gibbous, 69% of the Moon is Illuminated
Aug 21
Waning Gibbous
Aug 23
Last Quarter
Aug 30
New
Sep 5
First Quarter
Sep 14
Full

Hourly Weather History & Observations

Time (EDT) Temp. Heat Index Dew Point Humidity Pressure Visibility Wind Dir Wind Speed Gust Speed Precip Events Conditions
12:51 AM 78.1 °F - 70.0 °F 76% 30.03 in 10.0 mi Calm Calm - N/A   Scattered Clouds
1:51 AM 77.0 °F - 71.1 °F 82% 30.03 in 10.0 mi South 5.8 mph - N/A   Scattered Clouds
2:51 AM 75.9 °F - 72.0 °F 87% 30.02 in 10.0 mi South 4.6 mph - N/A   Scattered Clouds
3:07 AM 75.9 °F - 73.0 °F 91% 30.01 in 10.0 mi South 6.9 mph - N/A   Mostly Cloudy
3:19 AM 75.9 °F - 73.0 °F 91% 30.02 in 9.0 mi SW 9.2 mph - N/A   Overcast
3:51 AM 77.0 °F - 73.9 °F 90% 30.00 in 8.0 mi SE 3.5 mph - N/A   Mostly Cloudy
4:51 AM 75.9 °F - 73.9 °F 94% 29.97 in 8.0 mi South 4.6 mph - N/A   Mostly Cloudy
5:51 AM 77.0 °F - 73.9 °F 90% 29.96 in 7.0 mi SSE 4.6 mph - N/A   Mostly Cloudy
6:10 AM 77.0 °F - 73.9 °F 90% 29.96 in 7.0 mi Calm Calm - N/A   Mostly Cloudy
6:51 AM 77.0 °F - 73.9 °F 90% 29.97 in 7.0 mi SSE 4.6 mph - N/A   Overcast
7:15 AM 77.0 °F - 73.9 °F 90% 29.98 in 7.0 mi SSE 5.8 mph - N/A   Mostly Cloudy
7:51 AM 77.0 °F - 73.9 °F 90% 29.98 in 7.0 mi Variable 3.5 mph - N/A   Mostly Cloudy
8:51 AM 79.0 °F - 72.0 °F 79% 29.96 in 10.0 mi South 5.8 mph - N/A   Mostly Cloudy
9:51 AM 82.9 °F 87.0 °F 70.0 °F 65% 29.95 in 10.0 mi SSW 11.5 mph - N/A   Mostly Cloudy
10:51 AM 84.9 °F 89.4 °F 70.0 °F 61% 29.94 in 10.0 mi SW 13.8 mph - N/A   Mostly Cloudy
11:51 AM 82.9 °F 87.0 °F 70.0 °F 65% 29.94 in 10.0 mi WSW 18.4 mph - N/A   Overcast
12:51 PM 86.0 °F 92.2 °F 72.0 °F 63% 29.91 in 10.0 mi WSW 8.1 mph - N/A   Mostly Cloudy
1:51 PM 88.0 °F 94.7 °F 72.0 °F 59% 29.88 in 10.0 mi SSW 10.4 mph 18.4 mph N/A   Mostly Cloudy
2:51 PM 88.0 °F 93.8 °F 71.1 °F 57% 29.86 in 10.0 mi South 13.8 mph - N/A   Mostly Cloudy
3:51 PM 88.0 °F 93.8 °F 71.1 °F 57% 29.86 in 10.0 mi SW 12.7 mph - N/A   Mostly Cloudy
4:08 PM 88.0 °F 92.9 °F 70.0 °F 55% 29.85 in 10.0 mi SW 13.8 mph - N/A Thunderstorm Thunderstorm
4:23 PM 88.0 °F 92.9 °F 70.0 °F 55% 29.84 in 10.0 mi SW 15.0 mph - N/A   Mostly Cloudy
4:51 PM 88.0 °F 92.1 °F 69.1 °F 53% 29.83 in 10.0 mi WSW 11.5 mph - N/A   Mostly Cloudy
5:00 PM 89.1 °F 94.1 °F 70.0 °F 53% 29.84 in 10.0 mi WSW 9.2 mph - N/A Thunderstorm Thunderstorm
5:34 PM 86.0 °F 91.5 °F 71.1 °F 61% 29.86 in 5.0 mi West 38.0 mph 44.9 mph 0.00 in Rain , Thunderstorm Light Thunderstorms and Rain
5:37 PM 80.1 °F 83.2 °F 70.0 °F 71% 29.87 in 0.8 mi WNW 31.1 mph 44.9 mph 0.00 in Rain , Thunderstorm Thunderstorms and Rain
5:51 PM 75.9 °F - 69.1 °F 79% 29.86 in 3.0 mi NNW 9.2 mph - 0.26 in Rain , Thunderstorm Thunderstorms and Rain
6:18 PM 77.0 °F - 70.0 °F 79% 29.85 in 10.0 mi SSE 5.8 mph - N/A   Mostly Cloudy
6:51 PM 78.1 °F - 72.0 °F 81% 29.85 in 10.0 mi Calm Calm - N/A   Mostly Cloudy
7:51 PM 78.1 °F - 72.0 °F 81% 29.85 in 10.0 mi SSW 3.5 mph - N/A   Mostly Cloudy
8:51 PM 79.0 °F - 73.0 °F 82% 29.86 in 10.0 mi Calm Calm - N/A   Mostly Cloudy
9:51 PM 79.0 °F - 72.0 °F 79% 29.87 in 10.0 mi SSW 8.1 mph - N/A   Scattered Clouds
10:51 PM 79.0 °F - 72.0 °F 79% 29.87 in 10.0 mi WSW 8.1 mph - N/A   Scattered Clouds
11:51 PM 78.1 °F - 72.0 °F 81% 29.88 in 10.0 mi SW 9.2 mph - N/A   Mostly Cloudy